COSMOS 2251 DEB, 33825

Orbit data source: Space-Track

COSMOS 2251 DEB, 33825 is space debris in LEO originally from a launch on Wed, 16 Jun 1993 UTC launched from the Plesetsk Missile And Space Complex (PKMTR). The debris from Iridium 33, an American commercial communications satellite, has been tracked extensively since its accidental collision with the defunct Russian satellite Cosmos 2251 in 2009. This event, occurring at high speed in low Earth orbit (LEO), generated thousands of pieces of space debris, significantly increasing the risk of further collisions. The Iridium 33 debris cloud has impacted space traffic management and orbital debris mitigation strategies, making it a subject of ongoing study in space situational awareness.

Loading next visibility...
Identifier
33825, 1993-036BS
Orbit
LEO
Country
Flag of CISCIS
Related business
Manufacturer
Unknown
Mission
Spacecraft
Bus & Motor
Unknown
Mass
Unknown
Launch date (UTC)
1993-06-16 (32 years ago)
Launch vehicle
Unknown
Launch site
Plesetsk Missile And Space Complex (PKMTR)
Object type
Payload
Rocket body
Debris
Shape & HBR
Unknown shape, 0.2 m
Radar Cross Section
Small (<0.1 m²)

Expand to show TLE details & history
Last TLE update: 6 hours ago

TLE from 6 hours ago
0 COSMOS 2251 DEB
1 33825U 93036BS  25310.84102022  .00012762  00000-0  20598-2 0  9996
2 33825  73.9838  97.5634 0083499  74.5294  74.8566 14.69115901883528
Epoch: 2025-11-06T20:11Z
TLE epoch observation values (Epoch: 2025-11-06T20:11:04.147Z)
Latitude
28.48035°
Longitude
-80.40762°
Altitude
652.216 km
Speed
7.542 km/s
True Right ascension
17h 54m 36s
True Declination
28° 20' 03"
Sunlit
Object was in daylight at epoch
Visualization orbit readout
Latitude
Unknown
Longitude
Unknown
Altitude
Unknown
Speed
Unknown
Apparent Right ascension
Unknown
Apparent Declination
Unknown
Sunlit
N/A
Visualization observer readout
Local Sidereal Time
22:16:40
Azimuth
Unknown
Elevation
Unknown
Doppler factor
Unknown
Orbital elements
Apogee altitude
720.264 km
Perigee altitude
602.704 km
Semi-major axis
7,039.621 km
Eccentricity
0.00835
Inclination
73.9838°
RAAN
97.5634°
Arg. of periapsis
74.5294°
True anomaly
75.78269°
Mean anomaly
74.8566°
Eccentric anomaly
75.3194°
Mean motion
3.67468 °/min
Orbital period
97.97 mins
BSTAR
0.0020598
Loading maneuver chart data...
Computing Atmospheric mass density...

Documentation

Showing up to 5 results
|